Location: ??
(35.5052°N, 139.7262°E)
Time: 04:39:59
(UTC+00:00)

Cosmos 2150 Rocket - Visible Passes

Search period start: 17 October 2021 00:00
Search period end: 27 October 2021 00:00
Orbit: 749 x 808 km, 74.0° (Epoch: 16 October)

Date Brightness Start Highest point End Pass type
(mag) Time Alt. Az. Time Alt. Az. Time Alt. Az.
17 Oct 5.8 09:17:53 10° SW 09:22:49 34° WNW 09:27:44 10° N visible
17 Oct 5.6 18:08:35 12° N 18:12:50 32° ENE 18:17:26 10° SE visible
17 Oct 4.9 19:50:44 10° NW 19:54:53 25° W 19:59:01 10° SSW visible
18 Oct 4.9 08:43:24 10° SSW 08:48:44 56° WNW 08:54:03 10° N visible
18 Oct 6.3 17:38:51 20° ENE 17:38:51 20° ENE 17:42:24 10° ESE visible
18 Oct 4.3 19:19:32 33° WNW 19:21:05 41° WSW 19:25:53 10° S visible
19 Oct 7.1 09:56:28 10° WNW 09:57:43 11° WNW 09:58:59 10° NW visible
19 Oct 4.6 18:48:51 43° S 18:48:51 43° S 18:52:18 10° S visible
20 Oct 6.8 09:19:50 10° WSW 09:23:24 18° WNW 09:26:57 10° NNW visible
20 Oct 6.3 18:17:42 14° SSE 18:17:42 14° SSE 18:18:20 10° SSE visible
21 Oct 6.2 08:44:36 10° WSW 08:49:11 28° WNW 08:53:46 10° N visible
24 Oct 6.8 08:47:06 10° W 08:49:51 14° WNW 08:52:34 10° NNW visible
25 Oct 6.5 08:11:26 10° WSW 08:15:34 22° WNW 08:19:43 10° NNW visible
